This demonstration page uses our WeatherBlox Daily Observations layout. Learn more.

Left ArrowRight Arrow

40.92945, -100.16068

Hourly Observations for June 6, 2020

Temp ( °F °C ) Dew Point ( °F °C ) Humidity (%) Winds ( mph kmh ) Pressure ( in mb ) Visibility ( mi km ) Precip ( " mm )
12:15 am 00:15 Clear 74 23.5 65 18.2 72 72 ESE 8 13 29.8 1009 10 16.0934 0 0
12:35 am 00:35 Clear 75 24 65 18.2 70 70 ESE 8 13 29.8 1009 10 16.0934 0 0
12:55 am 00:55 Clear 75 24 65 18.3 71 71 ESE 9 15 29.8 1009 10 16.0934 0 0
1:15 am 01:15 Clear 74 23.6 65 18.4 73 73 ESE 8 13 29.79 1009 10 16.0934 0 0
1:35 am 01:35 Clear 75 23.7 65 18.3 72 72 SE 9 15 29.78 1009 10 16.0934 0 0
1:55 am 01:55 Clear 74 23.3 65 18.5 75 75 SE 7 11 29.78 1009 10 16.0934 0 0
2:15 am 02:15 Clear 74 23.5 65 18.5 74 74 SE 8 13 29.78 1009 10 16.0934 0 0
2:35 am 02:35 Clear 73 23 65 18.5 76 76 SE 6 9 29.8 1009 10 16.0934 0 0
2:55 am 02:55 Clear 73 22.6 65 18.5 78 78 E 7 11 29.8 1009 10 16.0934 0 0
3:15 am 03:15 Clear 72 22 66 18.7 82 82 ESE 7 11 29.81 1009 10 16.0934 0 0
3:35 am 03:35 Clear 72 22.2 66 18.7 81 81 SE 5 7 29.8 1009 10 16.0934 0 0
3:55 am 03:55 Clear 71 21.9 66 18.7 82 82 ESE 5 7 29.82 1010 10 16.0934 0 0
4:15 am 04:15 Clear 70 21.2 66 18.9 87 87 E 6 9 29.81 1010 10 16.0934 0 0
4:35 am 04:35 Clear with Thunderstorms 71 21.6 66 18.8 84 84 E 7 11 29.81 1009 10 16.0934 0 0
4:55 am 04:55 Clear with Nearby Thunderstorms 70 20.9 66 18.8 88 88 NNE 7 11 29.82 1010 10 16.0934 0 0
5:15 am 05:15 Clear 73 22.5 65 18.4 78 78 NE 3 6 29.82 1010 10 16.0934 0 0
5:35 am 05:35 Partly Cloudy 72 22.2 65 18.1 78 78 NE 12 19 29.84 1011 10 16.0934 0 0
5:55 am 05:55 Cloudy 73 23 65 18.6 76 76 ENE 12 19 29.83 1010 10 16.0934 0 0
6:15 am 06:15 Cloudy 73 22.6 66 18.7 79 79 ENE 14 22 29.82 1010 10 16.0934 0 0
6:35 am 06:35 Partly Cloudy 73 22.5 66 18.8 80 80 E 10 17 29.82 1010 10 16.0934 0 0
6:55 am 06:55 Partly Cloudy 73 22.7 66 18.9 79 79 ESE 12 19 29.82 1010 10 16.0934 0 0
7:15 am 07:15 Partly Cloudy 73 22.8 66 19 79 79 ESE 13 20 29.82 1010 10 16.0934 0 0
7:35 am 07:35 Mostly Cloudy 73 23 66 19 78 78 ESE 14 22 29.82 1010 10 16.0934 0 0
7:55 am 07:55 Partly Cloudy 73 23 66 19 78 78 ESE 14 22 29.81 1009 10 16.0934 0 0
8:15 am 08:15 Partly Cloudy with Nearby Thunderstorms 74 23.3 67 19.7 80 80 SE 14 22 29.8 1009 7 11.26538 0.02 0.508
8:35 am 08:35 Mostly Cloudy 73 22.5 67 19.5 83 83 SE 15 24 29.81 1010 10 16.0934 0.02 0.508
8:55 am 08:55 Mostly Cloudy 73 22.5 67 19.4 83 83 ESE 15 24 29.81 1010 10 16.0934 0.02 0.508
9:15 am 09:15 Cloudy 74 23.1 66 19.1 78 78 SE 13 20 29.8 1009 10 16.0934 0 0
9:35 am 09:35 Mostly Cloudy 74 23.5 67 19.2 77 77 SE 12 19 29.79 1009 10 16.0934 0 0
9:55 am 09:55 Mostly Cloudy 73 22.7 67 19.6 83 83 ESE 13 20 29.79 1009 10 16.0934 0 0
10:15 am 10:15 Cloudy with Light Rain 70 21 67 19.6 92 92 SE 14 22 29.82 1010 2 3.21868 0.12 3.048
10:35 am 10:35 Partly Cloudy 73 22.6 69 20.6 89 89 SE 14 22 29.79 1009 10 16.0934 0.12 3.048
10:55 am 10:55 Partly Cloudy with Light Rain 72 22 68 19.9 88 88 SSE 14 22 29.8 1009 10 16.0934 0.12 3.048
11:15 am 11:15 Partly Cloudy with Nearby Thunderstorms 72 22.2 68 20 87 87 SSE 12 19 29.79 1009 10 16.0934 0 0
11:35 am 11:35 Partly Cloudy with Light Rain 72 22 67 19.7 87 87 S 12 19 29.8 1009 10 16.0934 0 0
11:55 am 11:55 Partly Cloudy 72 22 68 19.8 87 87 SSE 10 17 29.8 1009 10 16.0934 0 0
12:15 pm 12:15 Partly Cloudy 72 22 68 20 88 88 SSE 9 15 29.8 1009 10 16.0934 0 0
12:35 pm 12:35 Partly Cloudy 72 22.3 68 20.2 88 88 SSE 7 11 29.78 1009 10 16.0934 0 0
12:55 pm 12:55 Sunny 73 22.6 69 20.5 88 88 SE 8 13 29.77 1008 10 16.0934 0 0
1:15 pm 13:15 Sunny 75 23.8 70 20.9 84 84 SE 8 13 29.75 1007 10 16.0934 0 0
1:35 pm 13:35 Sunny 80 26.4 73 22.5 79 79 SE 10 17 29.72 1006 10 16.0934 0 0
1:55 pm 13:55 Sunny 86 29.9 73 22.8 66 66 SSE 22 35 29.68 1005 10 16.0934 0 0
2:15 pm 14:15 Sunny 86 30.1 71 21.6 60 60 SSE 22 35 29.67 1005 10 16.0934 0 0
2:35 pm 14:35 Sunny 87 30.7 71 21.9 59 59 SSE 25 41 29.65 1004 10 16.0934 0 0
2:55 pm 14:55 Sunny 90 32.3 71 21.7 54 54 SSE 21 33 29.63 1003 10 16.0934 0 0
3:15 pm 15:15 Sunny 90 32.3 70 21 51 51 SSE 17 28 29.62 1003 10 16.0934 0 0
3:35 pm 15:35 Sunny 91 32.5 68 20 48 48 S 17 28 29.61 1003 10 16.0934 0 0
3:55 pm 15:55 Sunny 91 32.5 67 19.2 45 45 S 18 30 29.6 1002 10 16.0934 0 0
4:15 pm 16:15 Sunny 92 33.1 64 18 41 41 S 25 41 29.59 1002 10 16.0934 0 0
4:35 pm 16:35 Sunny 92 33.4 63 17.2 38 38 S 22 35 29.56 1001 10 16.0934 0 0
4:55 pm 16:55 Sunny 94 34.2 63 17.3 37 37 S 17 28 29.56 1001 10 16.0934 0 0
5:15 pm 17:15 Sunny 91 33 62 16.7 38 38 S 20 31 29.57 1001 10 16.0934 0 0
5:35 pm 17:35 Sunny 90 32.2 62 16.7 39 39 S 18 30 29.56 1001 10 16.0934 0 0
5:55 pm 17:55 Sunny 89 31.7 63 17.3 42 42 SSE 18 30 29.57 1001 10 16.0934 0 0
6:15 pm 18:15 Sunny 91 32.7 63 17.3 40 40 S 18 30 29.56 1001 10 16.0934 0 0
6:35 pm 18:35 Sunny 90 32.2 64 17.5 41 41 SSE 20 31 29.54 1000 10 16.0934 0 0
6:55 pm 18:55 Sunny 89 31.7 63 17 41 41 SSE 22 35 29.55 1001 10 16.0934 0 0
7:15 pm 19:15 Sunny 90 32.2 62 16.6 39 39 SSE 28 44 29.52 1000 10 16.0934 0 0
7:35 pm 19:35 Sunny 89 31.5 62 16.9 42 42 SSE 24 39 29.53 1000 10 16.0934 0 0
7:55 pm 19:55 Sunny 88 31 62 16.4 41 41 SSE 23 37 29.54 1000 10 16.0934 0 0
8:15 pm 20:15 Sunny 87 30.5 61 16.1 42 42 SSE 23 37 29.55 1001 10 16.0934 0 0
8:35 pm 20:35 Sunny 86 30 63 17.4 47 47 SSE 22 35 29.55 1001 10 16.0934 0 0
8:55 pm 20:55 Sunny 85 29.2 64 17.5 49 49 SSE 22 35 29.57 1001 10 16.0934 0 0
9:15 pm 21:15 Clear 84 28.9 62 16.8 48 48 SSE 21 33 29.58 1002 10 16.0934 0 0
9:35 pm 21:35 Clear 83 28.5 62 16.7 49 49 SSE 20 31 29.58 1002 10 16.0934 0 0
9:55 pm 21:55 Clear 83 28.2 62 16.5 49 49 SSE 20 31 29.59 1002 10 16.0934 0 0
10:15 pm 22:15 Clear 82 27.9 61 16.2 49 49 SSE 20 31 29.61 1003 10 16.0934 0 0
10:35 pm 22:35 Clear 82 27.7 61 16.1 49 49 SSE 24 39 29.61 1003 10 16.0934 0 0
10:55 pm 22:55 Clear 82 27.6 62 16.5 51 51 SSE 21 33 29.61 1003 10 16.0934 0 0
11:15 pm 23:15 Clear 80 26.9 63 17.2 55 55 SSE 21 33 29.62 1003 10 16.0934 0 0
11:35 pm 23:35 Clear 80 26.6 63 17.4 57 57 SSE 21 33 29.62 1003 10 16.0934 0 0
11:55 pm 23:55 Clear 80 26.5 63 17.3 57 57 SSE 20 31 29.62 1003 10 16.0934 0 0

Powered by AerisWeather